Regional & State Weather Roundups


907 
ASUS45 KPSR 161810
RWRAZ 
ARIZONA HOURLY REGIONAL WEATHER ROUNDUP
NATIONAL WEATHER SERVICE PHOENIX AZ
1100 AM MST SAT DEC 16 2017
NOTE: FAIR INDICATES FEW OR NO CLOUDS BELOW 12,000 FEET WITH NO
SIGNIFICANT WEATHER AND/OR OBSTRUCTIONS TO VISIBILITY.
AZZ001>003-036-161900-
NORTHWEST ARIZONA
  
CITY           SKY/WX    TMP DP  RH WIND       PRES   REMARKS
BULLHEAD CITY  MOSUNNY   59  19  21 N13       29.78R                  
KINGMAN        SUNNY     56   7  14 SE6       29.80F                  
6HR MIN TEMP:  39; 6HR MAX TEMP:  56;                                
$$
AZZ004>008-015-016-018-161900-
NORTH CENTRAL ARIZONA
  
CITY           SKY/WX    TMP DP  RH WIND       PRES   REMARKS
GRAND CANYON   CLOUDY    44   2  17 SW13      29.85F                  
6HR MIN TEMP:  18; 6HR MAX TEMP:  44;                                
WILLIAMS       CLOUDY    48 -13   7 S12       29.83F                  
PRESCOTT       CLOUDY    48  11  22 SE8       29.84S                  
6HR MIN TEMP:  29; 6HR MAX TEMP:  48;                                
FLAGSTAFF      CLOUDY    39   7  26 SW10      29.86S WCI  32          
6HR MIN TEMP:  24; 6HR MAX TEMP:  39;                                
PAYSON         CLOUDY    41  14  33 S5        29.88F                  
PAGE           CLOUDY    40  12  32 CALM      29.84F                  
6HR MIN TEMP:  31; 6HR MAX TEMP:  40;                                
$$
AZZ009>014-017-161900-
NORTHEAST ARIZONA
  
CITY           SKY/WX    TMP DP  RH WIND       PRES   REMARKS
WINSLOW        CLOUDY    37   6  27 E8        29.83F WCI  31          
6HR MIN TEMP:  19; 6HR MAX TEMP:  37;                                
SAINT JOHNS    PTSUNNY   41  -4  15 CALM      29.83F                  
6HR MIN TEMP:   9; 6HR MAX TEMP:  41;                                
WINDOW ROCK    CLOUDY    41   2  19 CALM      29.85F                  
6HR MIN TEMP:   6; 6HR MAX TEMP:  41;                                
SHOW LOW       PTSUNNY   50   0  12 S17       29.85F                  
$$
AZZ540-542>544-546-548-161900-
GREATER PHOENIX AREA
  
CITY           SKY/WX    TMP DP  RH WIND       PRES   REMARKS
PHOENIX        CLOUDY    55  24  30 SE8       29.80S                  
6HR MIN TEMP:  49; 6HR MAX TEMP:  55;                                
BUCKEYE        CLOUDY    57  18  21 E15G21    29.80R                  
GLENDALE       CLOUDY    57  23  26 CALM      29.83S                  
LUKE AFB       CLOUDY    56  23  28 NW5       29.80S                  
6HR MIN TEMP:  42; 6HR MAX TEMP:  56;                                
DEER VALLEY    CLOUDY    56  21  25 CALM      29.80F                  
6HR MIN TEMP:  46; 6HR MAX TEMP:  56;                                
SCOTTSDALE     CLOUDY    55  26  32 CALM      29.82S                  
6HR MIN TEMP:  45; 6HR MAX TEMP:  55;                                
MESA-GATEWAY   CLOUDY    55  19  24 CALM      29.83S                  
CHANDLER       CLOUDY    54  23  30 VRB3      29.82S                  
$$
AZZ539-553-161900-
SOUTHWEST MARICOPA COUNTY AND PINAL COUNTY
  
CITY           SKY/WX    TMP DP  RH WIND       PRES   REMARKS
CASA GRANDE    NOT AVBL                                               
GILA BEND      CLOUDY    59  16  18 N3        29.77S                  
$$
AZZ503-504-507>509-161900-
SOUTHEAST ARIZONA
  
CITY           SKY/WX    TMP DP  RH WIND       PRES   REMARKS
TUCSON         CLOUDY    60  16  18 S9        29.85F                  
6HR MIN TEMP:  42; 6HR MAX TEMP:  60;                                
DAVIS-MONTHAN  CLOUDY    62  17  17 SE8       29.83F                  
6HR MIN TEMP:  40; 6HR MAX TEMP:  62;                                
RYAN FIELD     SUNNY     61  16  17 E8        29.84S                  
NOGALES        PTSUNNY   58  22  24 S17       29.89F                  
6HR MIN TEMP:  30; 6HR MAX TEMP:  59;                                
SIERRA VISTA   MOSUNNY   51  15  23 NE7       29.89F                  
6HR MIN TEMP:  30; 6HR MAX TEMP:  51;                                
DOUGLAS        SUNNY     51  19  28 S14       29.92F                  
6HR MIN TEMP:  17; 6HR MAX TEMP:  51;                                
SAFFORD        MOSUNNY   49  19  30 SE8       29.90F                  
6HR MIN TEMP:  34; 6HR MAX TEMP:  49;                                
$$
AZZ532-161900-
SOUTHWEST ARIZONA
  
CITY           SKY/WX    TMP DP  RH WIND       PRES   REMARKS
YUMA           PTSUNNY   63  26  24 NE7       29.74F                  
6HR MIN TEMP:  49; 6HR MAX TEMP:  63;                                
$$
CAZ041-043-047-048-061-525>527-560>570-161900-
SOUTHERN CALIFORNIA
  
CITY           SKY/WX    TMP DP  RH WIND       PRES   REMARKS
DOWNTOWN L.A.  SUNNY     62  47  57 VRB6      29.72S                  
6HR MIN TEMP:  53; 6HR MAX TEMP:  62;                                
L.A. AIRPORT   MOSUNNY   63  50  62 E6        29.72F                  
6HR MIN TEMP:  53; 6HR MAX TEMP:  63; 6HR PCP: TRACE;                
SAN DIEGO      PTSUNNY   61  55  81 S12       29.76F                  
6HR MIN TEMP:  53; 6HR MAX TEMP:  61; 6HR PCP: TRACE;                
BURBANK        SUNNY     60  38  43 S5        29.72F                  
6HR MIN TEMP:  51; 6HR MAX TEMP:  60; 6HR PCP: TRACE;                
ONTARIO        MOSUNNY   61  20  20 E10       29.73F                  
6HR MIN TEMP:  47; 6HR MAX TEMP:  61;                                
RIVERSIDE      MOSUNNY   59  23  25 E7        29.74F                  
6HR MIN TEMP:  46; 6HR MAX TEMP:  59; 6HR PCP: TRACE;                
PALM SPRINGS   CLOUDY    57  28  33 SW8       29.77S                  
6HR MIN TEMP:  49; 6HR MAX TEMP:  57;                                
EL CENTRO NAS  PTSUNNY   57  25  29 NE6       29.75F                  
6HR MIN TEMP:  42; 6HR MAX TEMP:  57;                                
IMPERIAL       CLOUDY    57  28  33 E6        29.72F                  
6HR MIN TEMP:  44; 6HR MAX TEMP:  57;                                
BLYTHE         MOSUNNY   53  23  31 SE8       29.74F                  
6HR MIN TEMP:  41; 6HR MAX TEMP:  53;                                
NEEDLES        SUNNY     58  11  15 VRB3      29.77F                  
6HR MIN TEMP:  46; 6HR MAX TEMP:  58;                                
$$
NVZ020-UTZ003-161900-
SOUTHERN NEVADA-UTAH
  
CITY           SKY/WX    TMP DP  RH WIND       PRES   REMARKS
LAS VEGAS      CLOUDY    51  18  27 CALM      29.79S                  
6HR MIN TEMP:  45; 6HR MAX TEMP:  51;                                
SALT LAKE CITY LGT SNOW  33  31  92 NW10      29.91S VSB 1   WCI  25  
6HR MIN TEMP:  30; 6HR MAX TEMP:  34; 6HR PCP:  0.01;                
$$
NMZ009-TXZ055-161900-
NEW MEXICO-WEST TEXAS
  
CITY           SKY/WX    TMP DP  RH WIND       PRES   REMARKS
ALBUQUERQUE    MOSUNNY   37  18  46 S12       29.89F WCI  29          
6HR MIN TEMP:  24; 6HR MAX TEMP:  37;                                
EL PASO        SUNNY     45  26  47 S5        29.94F                  
6HR MIN TEMP:  26; 6HR MAX TEMP:  45;                                
$$
........................KEY........................
SKY/WX - SKY CONDITION/WEATHER
TMP    - TEMPERATURE IN FAHRENHEIT
DP     - DEW POINT IN FAHRENHEIT
RH     - RELATIVE HUMIDITY IN PERCENT
WIND   - DIRECTION AND SPEED IN MILES PER HOUR (MPH)
VRB    - VARIABLE WIND DIRECTION
PRES   - MEAN SEA LEVEL PRESSURE IN INCHES OF MERCURY
         F - FALLING PRESSURE   R - RISING PRESSURE
         S - STEADY PRESSURE
VSB    - VISIBILITY IN MILES
HX     - HEAT INDEX IN FAHRENHEIT
WCI    - WIND CHILL INDEX IN FAHRENHEIT
TC     - TEMPERATURE IN CELSIUS WHICH IS ALSO KNOWN AS
         TEMPERATURE IN CENTIGRADE
AFB    - AIR FORCE BASE
         LUKE AFB IS LUKE AIR FORCE BASE
         DAVIS-MONTHAN IS DAVIS-MONTHAN AIR FORCE BASE
NAS    - NAVAL AIR STATION
         EL CENTRO NAS IS EL CENTRO NAVAL AIR STATION
N/A    - NOT AVAILABLE